Weather in Nilandhoo

Maldives     3°03′24″N   72°53′21″E
temp.,
°C
wind,
m/s
gust,
m/s
humid.,
%
clouds,
%
prec.,
mm/h
press.,
hPa
HPBL,
m
10 august, wed
wed1023:00+28wsw4578100 0.5 1009650
02:00+27w4478100 1.1 1008644
05:00+27wnw2377100 2.3 1008356
08:00+27wnw3375100 0.0 1009556
11:00+28nw3373100 0.0 1009639
14:00+28nw447443 0.0 1006705
17:00+28nw447473 0.0 1007770
20:00+28nw347689 0.0 1008751
11 august, thu
thu1123:00+28nw22775 0.3 1009391
02:00+27n11785 1.5 1008161
05:00+27nw227712 3.4 100896
08:00+27sw00735 0.2 1010377
11:00+28nne117225 0.2 1009458
14:00+28e11714 0.0 1008646
17:00+28ene117098 0.0 1008763
20:00+28e11715 0.0 1010565
12 august, fri
fri1223:00+28ese22755 0.3 1011270
02:00+27ese327757 0.4 1009512
05:00+27ese337716 0.9 1009592
08:00+27e22765 0.0 1011588
11:00+28ese22752 0.0 1010598
14:00+28ese2274100 0.0 1008677
17:00+28ene227373 0.6 1008685
20:00+28ene227493 0.1 1010626
13 august, sat
sat1323:00+28e337527 0.2 1011628
02:00+27ene237940 1.3 1009440
05:00+27e2277100 1.7 1009551
08:00+27ese2277100 0.2 1010548
11:00+27ese227659 0.2 1011568
14:00+27e117499 0.0 1008635
17:00+28e227356 0.0 1008741
20:00+28e2274100 0.0 1010673
14 august, sun
sun1423:00+27ene2275100 0.0 1010643
02:00+27ene1175100 0.0 1009540
05:00+27e227791 0.1 1009584
08:00+27ene33763 0.3 1011580
11:00+27ene33755 0.3 1011643
14:00+28ne22737 0.0 1009667
17:00+28ene2272100 0.0 1009719
20:00+28ene227387 0.0 1010733